SWA1508 KTUS-KSAN

Flight info

Callsign SWA1508
Flight time 1h 5m
Altitude 32000
Route WLDKT4 GBN J2 HOGGZ LUCKI1
Aircraft B38M/M-SDE1FGHILORVWXY/HB1

Departure

Time 2026-04-25 22:29
Airport Tucson International Airport (KTUS)

Arrival

Time 2026-04-25 23:35
Airport San Diego International Airport (KSAN)
Time Latitude Longitude Altitude Speed Heading
2026-04-25 22:10 32.12076 -110.93999 2607 ft 0 kts 80°
2026-04-25 22:19 32.12072 -110.94024 2607 ft 4 kts 80°
2026-04-25 22:19 32.12071 -110.94055 2607 ft 4 kts 99°
2026-04-25 22:19 32.12080 -110.94083 2607 ft 4 kts 135°
2026-04-25 22:19 32.12096 -110.94094 2608 ft 1 kts 165°
2026-04-25 22:20 32.12100 -110.94095 2608 ft 0 kts 165°
2026-04-25 22:23 32.12092 -110.94093 2608 ft 3 kts 165°
2026-04-25 22:24 32.12059 -110.94078 2607 ft 7 kts 150°
2026-04-25 22:24 32.12011 -110.94027 2606 ft 13 kts 137°
2026-04-25 22:24 32.11914 -110.93913 2606 ft 25 kts 135°
2026-04-25 22:24 32.11775 -110.93750 2605 ft 29 kts 134°
2026-04-25 22:25 32.11629 -110.93582 2607 ft 30 kts 141°
2026-04-25 22:25 32.11493 -110.93518 2611 ft 16 kts 199°
2026-04-25 22:25 32.11418 -110.93467 2613 ft 20 kts 132°
2026-04-25 22:25 32.11288 -110.93314 2612 ft 30 kts 135°
2026-04-25 22:26 32.11154 -110.93163 2609 ft 27 kts 135°
2026-04-25 22:26 32.11010 -110.92988 2609 ft 31 kts 135°
2026-04-25 22:26 32.10845 -110.92792 2611 ft 35 kts 135°
2026-04-25 22:26 32.10670 -110.92590 2613 ft 35 kts 136°
2026-04-25 22:27 32.10500 -110.92389 2613 ft 36 kts 135°
2026-04-25 22:27 32.10345 -110.92208 2611 ft 17 kts 138°
2026-04-25 22:27 32.10283 -110.92194 2610 ft 8 kts 214°
2026-04-25 22:27 32.10275 -110.92208 2610 ft 2 kts 241°
2026-04-25 22:28 32.10267 -110.92220 2610 ft 4 kts 230°
2026-04-25 22:28 32.10225 -110.92296 2610 ft 19 kts 263°
2026-04-25 22:28 32.10444 -110.92579 2615 ft 78 kts 315°
2026-04-25 22:28 32.11195 -110.93452 2612 ft 147 kts 315°
2026-04-25 22:29 32.11733 -110.94067 2666 ft 168 kts 313°
2026-04-25 22:29 32.12591 -110.95025 3124 ft 173 kts 314°
2026-04-25 22:29 32.13474 -110.96019 3668 ft 179 kts 314°
2026-04-25 22:30 32.15151 -110.98123 4325 ft 210 kts 309°
2026-04-25 22:30 32.16064 -110.99203 4595 ft 230 kts 311°
2026-04-25 22:30 32.16856 -111.00132 4876 ft 242 kts 311°
2026-04-25 22:31 32.18473 -111.02030 5827 ft 250 kts 311°
2026-04-25 22:31 32.19705 -111.03480 6707 ft 255 kts 310°
2026-04-25 22:31 32.21003 -111.05014 7246 ft 272 kts 311°
2026-04-25 22:31 32.22143 -111.06814 7912 ft 274 kts 289°
2026-04-25 22:32 32.22627 -111.08965 8837 ft 273 kts 279°
2026-04-25 22:32 32.23004 -111.11143 9757 ft 275 kts 278°
2026-04-25 22:32 32.23372 -111.13413 10414 ft 288 kts 278°
2026-04-25 22:32 32.23747 -111.15817 10948 ft 303 kts 277°
2026-04-25 22:33 32.24122 -111.18301 11695 ft 310 kts 276°
2026-04-25 22:33 32.24495 -111.20810 12646 ft 310 kts 276°
2026-04-25 22:33 32.25022 -111.23304 13566 ft 315 kts 283°
2026-04-25 22:33 32.25651 -111.25760 14421 ft 317 kts 282°
2026-04-25 22:34 32.26276 -111.28264 15323 ft 317 kts 282°
2026-04-25 22:34 32.26889 -111.30764 16227 ft 317 kts 281°
2026-04-25 22:34 32.27501 -111.33290 17093 ft 319 kts 281°
2026-04-25 22:34 32.28112 -111.35824 17930 ft 320 kts 281°
2026-04-25 22:35 32.28724 -111.38362 18680 ft 322 kts 281°
2026-04-25 22:35 32.29330 -111.40887 19378 ft 324 kts 281°
2026-04-25 22:35 32.29945 -111.43450 20048 ft 326 kts 281°
2026-04-25 22:35 32.30568 -111.46051 20723 ft 329 kts 281°
2026-04-25 22:36 32.31195 -111.48669 21384 ft 331 kts 281°
2026-04-25 22:36 32.31816 -111.51267 22024 ft 334 kts 281°
2026-04-25 22:36 32.32450 -111.53919 22683 ft 337 kts 281°
2026-04-25 22:36 32.33090 -111.56605 23324 ft 339 kts 281°
2026-04-25 22:37 32.33732 -111.59299 23847 ft 342 kts 281°
2026-04-25 22:37 32.34378 -111.62014 24417 ft 343 kts 280°
2026-04-25 22:37 32.35024 -111.64732 24963 ft 344 kts 280°
2026-04-25 22:37 32.35675 -111.67471 25488 ft 346 kts 280°
2026-04-25 22:38 32.36327 -111.70219 26009 ft 348 kts 279°
2026-04-25 22:38 32.36984 -111.72988 26518 ft 350 kts 279°
2026-04-25 22:38 32.37635 -111.75737 27010 ft 352 kts 279°
2026-04-25 22:38 32.38297 -111.78534 27492 ft 353 kts 279°
2026-04-25 22:39 32.38960 -111.81342 27974 ft 355 kts 279°
2026-04-25 22:39 32.39627 -111.84166 28450 ft 357 kts 278°
2026-04-25 22:39 32.40297 -111.87005 28916 ft 359 kts 278°
2026-04-25 22:39 32.40970 -111.89863 29361 ft 361 kts 278°
2026-04-25 22:40 32.41646 -111.92736 29822 ft 363 kts 278°
2026-04-25 22:40 32.42326 -111.95628 30205 ft 365 kts 278°
2026-04-25 22:40 32.43000 -111.98501 30566 ft 367 kts 278°
2026-04-25 22:40 32.43687 -112.01428 30917 ft 369 kts 278°
2026-04-25 22:41 32.44378 -112.04377 31271 ft 371 kts 278°
2026-04-25 22:41 32.45071 -112.07341 31617 ft 374 kts 278°
2026-04-25 22:41 32.45758 -112.10281 31938 ft 376 kts 278°
2026-04-25 22:41 32.46457 -112.13274 32297 ft 377 kts 278°
2026-04-25 22:42 32.47151 -112.16249 32916 ft 372 kts 277°
2026-04-25 22:42 32.47838 -112.19201 33566 ft 367 kts 277°
2026-04-25 22:42 32.48514 -112.22106 34088 ft 364 kts 277°
2026-04-25 22:42 32.49176 -112.24955 34502 ft 362 kts 277°
2026-04-25 22:43 32.49845 -112.27838 34903 ft 361 kts 277°
2026-04-25 22:43 32.50508 -112.30696 35264 ft 360 kts 277°
2026-04-25 22:43 32.51169 -112.33553 35639 ft 359 kts 277°
2026-04-25 22:43 32.51831 -112.36414 35820 ft 360 kts 277°
2026-04-25 22:44 32.53138 -112.42070 35821 ft 355 kts 277°
2026-04-25 22:44 32.54442 -112.47735 35830 ft 356 kts 276°
2026-04-25 22:45 32.55746 -112.53408 35780 ft 355 kts 276°
2026-04-25 22:45 32.57035 -112.59028 35874 ft 355 kts 276°
2026-04-25 22:46 32.58334 -112.64704 35809 ft 355 kts 276°
2026-04-25 22:46 32.59625 -112.70359 35841 ft 356 kts 276°
2026-04-25 22:47 32.60921 -112.76043 35831 ft 357 kts 277°
2026-04-25 22:47 32.62208 -112.81703 35833 ft 358 kts 277°
2026-04-25 22:48 32.63504 -112.87417 35828 ft 358 kts 277°
2026-04-25 22:48 32.64791 -112.93103 35823 ft 358 kts 277°
2026-04-25 22:49 32.66082 -112.98822 35815 ft 358 kts 276°
2026-04-25 22:49 32.67356 -113.04479 35814 ft 358 kts 276°
2026-04-25 22:50 32.68641 -113.10192 35813 ft 358 kts 276°
2026-04-25 22:50 32.69925 -113.15919 35814 ft 359 kts 276°
2026-04-25 22:51 32.71207 -113.21652 35811 ft 359 kts 276°
2026-04-25 22:51 32.72480 -113.27354 35813 ft 359 kts 276°
2026-04-25 22:52 32.73772 -113.33095 35838 ft 359 kts 276°
2026-04-25 22:52 32.74824 -113.37880 35819 ft 359 kts 276°
2026-04-25 22:53 32.76307 -113.44581 35803 ft 361 kts 276°
2026-04-25 22:53 32.77588 -113.50377 35815 ft 362 kts 276°
2026-04-25 22:54 32.78865 -113.56165 35816 ft 362 kts 276°
2026-04-25 22:54 32.80133 -113.61927 35814 ft 362 kts 276°
2026-04-25 22:55 32.81315 -113.67728 35807 ft 354 kts 268°
2026-04-25 22:55 32.80864 -113.73435 35801 ft 347 kts 258°
2026-04-25 22:56 32.80156 -113.79067 35820 ft 347 kts 257°
2026-04-25 22:56 32.79373 -113.84741 35818 ft 347 kts 257°
2026-04-25 22:57 32.78566 -113.90400 35825 ft 347 kts 256°
2026-04-25 22:57 32.77751 -113.96063 35823 ft 347 kts 257°
2026-04-25 22:58 32.77553 -114.01832 35819 ft 351 kts 263°
2026-04-25 22:58 32.77559 -114.07661 35820 ft 354 kts 266°
2026-04-25 22:59 32.77805 -114.13477 35830 ft 355 kts 266°
2026-04-25 22:59 32.78030 -114.19343 35826 ft 354 kts 266°
2026-04-25 23:00 32.78248 -114.25196 35829 ft 354 kts 266°
2026-04-25 23:00 32.78462 -114.31014 35874 ft 354 kts 266°
2026-04-25 23:01 32.78677 -114.36872 35822 ft 354 kts 267°
2026-04-25 23:01 32.79143 -114.39789 35832 ft 367 kts 279°
2026-04-25 23:01 32.79930 -114.42695 35858 ft 368 kts 278°
2026-04-25 23:02 32.81474 -114.48480 35840 ft 368 kts 278°
2026-04-25 23:02 32.83057 -114.54277 35842 ft 368 kts 278°
2026-04-25 23:03 32.84639 -114.60044 35828 ft 361 kts 278°
2026-04-25 23:03 32.85402 -114.62820 35683 ft 349 kts 278°
2026-04-25 23:03 32.86146 -114.65542 35306 ft 344 kts 278°
2026-04-25 23:04 32.86881 -114.68232 34896 ft 340 kts 278°
2026-04-25 23:04 32.87360 -114.69988 34638 ft 337 kts 277°
2026-04-25 23:04 32.87753 -114.73538 34026 ft 317 kts 262°
2026-04-25 23:04 32.87751 -114.76127 33623 ft 314 kts 263°
2026-04-25 23:05 32.87742 -114.78708 33192 ft 309 kts 263°
2026-04-25 23:05 32.87714 -114.81243 32861 ft 304 kts 263°
2026-04-25 23:05 32.87676 -114.83735 32497 ft 300 kts 263°
2026-04-25 23:05 32.87628 -114.86268 32163 ft 309 kts 263°
2026-04-25 23:06 32.87575 -114.88839 31807 ft 313 kts 263°
2026-04-25 23:06 32.87518 -114.91445 31444 ft 316 kts 263°
2026-04-25 23:06 32.87460 -114.94031 31083 ft 316 kts 263°
2026-04-25 23:06 32.87401 -114.96651 30730 ft 317 kts 263°
2026-04-25 23:07 32.87340 -114.99275 30382 ft 316 kts 263°
2026-04-25 23:07 32.87279 -115.01895 30070 ft 316 kts 263°
2026-04-25 23:07 32.87218 -115.04508 29680 ft 315 kts 263°
2026-04-25 23:07 32.87156 -115.07105 29278 ft 314 kts 263°
2026-04-25 23:08 32.87094 -115.09705 28905 ft 314 kts 263°
2026-04-25 23:08 32.87032 -115.12264 28561 ft 312 kts 263°
2026-04-25 23:08 32.86970 -115.14843 28225 ft 312 kts 264°
2026-04-25 23:08 32.86906 -115.17424 27889 ft 310 kts 264°
2026-04-25 23:09 32.86843 -115.19997 27554 ft 309 kts 264°
2026-04-25 23:09 32.86779 -115.22554 27224 ft 308 kts 264°
2026-04-25 23:09 32.86715 -115.25108 26895 ft 307 kts 264°
2026-04-25 23:09 32.86654 -115.27609 26571 ft 306 kts 263°
2026-04-25 23:10 32.86588 -115.30132 26251 ft 305 kts 264°
2026-04-25 23:10 32.86524 -115.32652 25913 ft 304 kts 263°
2026-04-25 23:10 32.86333 -115.35138 25573 ft 299 kts 255°
2026-04-25 23:10 32.85959 -115.37564 25237 ft 296 kts 257°
2026-04-25 23:11 32.85623 -115.39973 24933 ft 293 kts 257°
2026-04-25 23:11 32.85298 -115.42362 24620 ft 290 kts 257°
2026-04-25 23:11 32.84987 -115.44687 24321 ft 286 kts 257°
2026-04-25 23:11 32.84677 -115.47013 24028 ft 283 kts 257°
2026-04-25 23:12 32.84338 -115.49313 23721 ft 284 kts 256°
2026-04-25 23:12 32.83952 -115.51644 23356 ft 289 kts 256°
2026-04-25 23:12 32.83563 -115.54012 23003 ft 291 kts 256°
2026-04-25 23:12 32.83178 -115.56371 22671 ft 290 kts 256°
2026-04-25 23:13 32.82800 -115.58690 22355 ft 289 kts 256°
2026-04-25 23:13 32.82418 -115.61035 22035 ft 288 kts 256°
2026-04-25 23:13 32.82037 -115.63372 21745 ft 286 kts 256°
2026-04-25 23:13 32.81658 -115.65690 21445 ft 285 kts 256°
2026-04-25 23:14 32.81280 -115.67999 21118 ft 282 kts 256°
2026-04-25 23:14 32.80913 -115.70246 20813 ft 279 kts 256°
2026-04-25 23:14 32.80544 -115.72495 20505 ft 276 kts 255°
2026-04-25 23:14 32.80174 -115.74746 20202 ft 277 kts 256°
2026-04-25 23:15 32.79803 -115.77006 19898 ft 277 kts 256°
2026-04-25 23:15 32.79557 -115.78501 19697 ft 277 kts 256°
2026-04-25 23:15 32.79189 -115.80741 19399 ft 276 kts 255°
2026-04-25 23:15 32.78702 -115.83697 19003 ft 272 kts 255°
2026-04-25 23:16 32.78457 -115.85934 18610 ft 276 kts 261°
2026-04-25 23:16 32.78362 -115.87444 18381 ft 275 kts 261°
2026-04-25 23:16 32.78207 -115.89705 18039 ft 273 kts 261°
2026-04-25 23:16 32.78045 -115.91953 17659 ft 272 kts 261°
2026-04-25 23:17 32.77879 -115.94198 17297 ft 270 kts 261°
2026-04-25 23:17 32.77711 -115.96416 16940 ft 269 kts 260°
2026-04-25 23:17 32.77543 -115.98618 16587 ft 267 kts 260°
2026-04-25 23:17 32.77376 -116.00793 16249 ft 266 kts 260°
2026-04-25 23:18 32.77208 -116.02979 15926 ft 264 kts 260°
2026-04-25 23:18 32.77039 -116.05156 15588 ft 263 kts 260°
2026-04-25 23:18 32.76869 -116.07321 15254 ft 262 kts 260°
2026-04-25 23:18 32.76702 -116.09483 14918 ft 261 kts 260°
2026-04-25 23:19 32.76539 -116.11595 14583 ft 259 kts 260°
2026-04-25 23:19 32.76372 -116.13725 14286 ft 259 kts 260°
2026-04-25 23:19 32.76205 -116.15858 13942 ft 259 kts 260°
2026-04-25 23:19 32.76038 -116.17997 13589 ft 259 kts 260°
2026-04-25 23:20 32.75872 -116.20129 13233 ft 260 kts 260°
2026-04-25 23:20 32.75703 -116.22268 12867 ft 261 kts 260°
2026-04-25 23:20 32.75533 -116.24411 12487 ft 260 kts 260°
2026-04-25 23:20 32.75366 -116.26533 12193 ft 256 kts 260°
2026-04-25 23:21 32.75201 -116.28624 11920 ft 253 kts 260°
2026-04-25 23:21 32.75038 -116.30742 11700 ft 264 kts 260°
2026-04-25 23:21 32.74867 -116.32943 11459 ft 275 kts 260°
2026-04-25 23:21 32.74690 -116.35235 11271 ft 277 kts 260°
2026-04-25 23:22 32.74514 -116.37494 11078 ft 271 kts 260°
2026-04-25 23:22 32.74343 -116.39701 10888 ft 263 kts 260°
2026-04-25 23:22 32.74181 -116.41773 10677 ft 248 kts 260°
2026-04-25 23:23 32.73866 -116.45791 10328 ft 242 kts 259°
2026-04-25 23:23 32.73709 -116.47784 10180 ft 243 kts 260°
2026-04-25 23:23 32.73549 -116.49787 9986 ft 241 kts 259°
2026-04-25 23:23 32.73359 -116.51767 9730 ft 242 kts 259°
2026-04-25 23:24 32.73168 -116.53757 9489 ft 243 kts 259°
2026-04-25 23:24 32.72978 -116.55733 9160 ft 243 kts 259°
2026-04-25 23:24 32.72790 -116.57707 8886 ft 240 kts 260°
2026-04-25 23:24 32.72598 -116.59696 8701 ft 245 kts 260°
2026-04-25 23:25 32.72401 -116.61740 8417 ft 250 kts 261°
2026-04-25 23:25 32.72203 -116.63802 8185 ft 250 kts 260°
2026-04-25 23:25 32.72011 -116.65860 7988 ft 252 kts 261°
2026-04-25 23:25 32.71847 -116.67967 7429 ft 265 kts 262°
2026-04-25 23:26 32.71671 -116.70182 6875 ft 275 kts 262°
2026-04-25 23:26 32.71486 -116.72481 6363 ft 283 kts 263°
2026-04-25 23:26 32.71302 -116.74815 6003 ft 278 kts 263°
2026-04-25 23:26 32.71130 -116.77009 5958 ft 254 kts 262°
2026-04-25 23:27 32.70974 -116.78997 5979 ft 231 kts 263°
2026-04-25 23:27 32.70832 -116.80787 5986 ft 210 kts 262°
2026-04-25 23:27 32.70547 -116.82433 5860 ft 202 kts 249°
2026-04-25 23:27 32.70057 -116.84010 5652 ft 204 kts 249°
2026-04-25 23:28 32.69567 -116.85587 5427 ft 204 kts 249°
2026-04-25 23:28 32.69073 -116.87180 5160 ft 204 kts 249°
2026-04-25 23:28 32.68596 -116.88758 4885 ft 207 kts 250°
2026-04-25 23:28 32.68115 -116.90381 4537 ft 208 kts 250°
2026-04-25 23:29 32.67632 -116.92010 4168 ft 209 kts 250°
2026-04-25 23:29 32.67334 -116.93686 3810 ft 208 kts 274°
2026-04-25 23:29 32.67664 -116.95307 3696 ft 199 kts 283°
2026-04-25 23:29 32.68013 -116.96826 3611 ft 183 kts 284°
2026-04-25 23:30 32.68332 -116.98195 3503 ft 157 kts 283°
2026-04-25 23:30 32.68594 -116.99355 3441 ft 138 kts 281°
2026-04-25 23:30 32.68849 -117.00429 3319 ft 134 kts 282°
2026-04-25 23:30 32.69108 -117.01497 3142 ft 134 kts 281°
2026-04-25 23:31 32.69364 -117.02552 2940 ft 135 kts 282°
2026-04-25 23:31 32.69626 -117.03630 2777 ft 136 kts 282°
2026-04-25 23:31 32.69889 -117.04700 2629 ft 134 kts 284°
2026-04-25 23:31 32.70147 -117.05761 2413 ft 133 kts 284°
2026-04-25 23:32 32.70402 -117.06810 2177 ft 130 kts 282°
2026-04-25 23:32 32.70652 -117.07836 1980 ft 128 kts 282°
2026-04-25 23:32 32.70902 -117.08861 1871 ft 131 kts 284°
2026-04-25 23:32 32.71160 -117.09915 1709 ft 134 kts 283°
2026-04-25 23:33 32.71416 -117.10967 1493 ft 131 kts 283°
2026-04-25 23:33 32.71667 -117.12007 1205 ft 134 kts 284°
2026-04-25 23:33 32.71923 -117.13070 1019 ft 132 kts 283°
2026-04-25 23:33 32.72176 -117.14127 796 ft 135 kts 285°
2026-04-25 23:34 32.72450 -117.15208 673 ft 136 kts 283°
2026-04-25 23:34 32.72707 -117.16264 452 ft 133 kts 281°
2026-04-25 23:34 32.72960 -117.17306 201 ft 131 kts 283°
2026-04-25 23:34 32.73214 -117.18363 51 ft 133 kts 284°
2026-04-25 23:35 32.73450 -117.19321 27 ft 103 kts 284°
2026-04-25 23:35 32.73554 -117.19685 32 ft 20 kts 292°
2026-04-25 23:35 32.73563 -117.19736 33 ft 10 kts 268°
2026-04-25 23:35 32.73512 -117.19850 30 ft 17 kts 237°
2026-04-25 23:36 32.73502 -117.19870 30 ft 0 kts 243°
2026-04-25 23:38 32.73493 -117.19895 29 ft 9 kts 248°
2026-04-25 23:38 32.73484 -117.19903 29 ft 0 kts 186°
2026-04-25 23:38 32.73482 -117.19901 29 ft 1 kts 154°
2026-04-25 23:38 32.73478 -117.19889 29 ft 6 kts 113°
2026-04-25 23:39 32.73450 -117.19780 29 ft 20 kts 103°
2026-04-25 23:39 32.73368 -117.19706 27 ft 14 kts 189°
2026-04-25 23:39 32.73299 -117.19721 28 ft 6 kts 160°
2026-04-25 23:39 32.73284 -117.19708 27 ft 0 kts 136°